Date String (YYYY-MM-DD hh:mm:ss) UTC,Instrument flags,Ambient pressure (hPa),Sample flow (lpm),Bypass flow (lpm),Sample temperature (°C),Ambient temperature (°C),ASC tube jacket temperature (°C),LED temperature (°C),Box temperature (°C),Sample RH (%),Span deviation,Mass concentration (μg/m³),Mass concentration (μg/m³),Mass concentration (μg/m³)
DateTimeUTC,F1_M11,P_M11,Q1_M11,Q2_M11,T1_M11,T2_M11,T3_M11,T4_M11,T5_M11,U1_M11,ZSPAN_M11,X0_M11,X2_M11,X1_M11
2023-01-21 15:00:00,,0826.2,5.00,0.00,22.4,22.2,00.0,31.1,24.3,08.7,0000.0,0006.88,0004.76,0004.60
2023-01-21 15:01:00,,0826.2,5.00,0.00,22.5,22.5,00.0,31.1,24.4,08.7,0000.0,0006.86,0004.76,0004.59
2023-01-21 15:02:00,,0826.2,4.99,0.00,22.5,22.1,00.0,31.1,24.4,08.8,0000.0,0006.84,0004.76,0004.59
2023-01-21 15:03:00,,0826.1,5.00,0.00,22.5,21.6,00.0,31.1,24.3,08.7,0000.0,0006.89,0004.78,0004.59
2023-01-21 15:04:00,,0826.1,4.99,0.00,22.4,21.3,00.0,31.2,24.2,08.7,0000.0,0006.77,0004.80,0004.59
2023-01-21 15:05:00,,0826.2,5.00,0.00,22.4,21.1,00.0,31.2,24.1,08.7,0000.0,0007.18,0004.80,0004.59
2023-01-21 15:06:00,,0826.2,4.99,0.00,22.4,20.9,00.0,31.1,24.1,08.6,0000.0,0007.29,0004.81,0004.61
2023-01-21 15:07:00,,0826.2,5.02,0.00,22.4,20.7,00.0,31.1,24.0,08.5,0000.0,0007.38,0004.84,0004.63
2023-01-21 15:08:00,,0826.1,4.99,0.00,22.3,20.6,00.0,31.1,24.0,08.5,0000.0,0007.37,0004.86,0004.64
2023-01-21 15:09:00,,0826.0,5.00,0.00,22.3,20.5,00.0,31.1,23.9,08.5,0000.0,0007.40,0004.88,0004.66
2023-01-21 15:10:00,,0826.0,5.00,0.00,22.2,20.3,00.0,31.1,23.8,08.6,0000.0,0007.41,0004.89,0004.67
2023-01-21 15:11:00,,0826.0,4.99,0.00,22.2,20.1,00.0,31.1,23.8,08.6,0000.0,0007.49,0004.91,0004.69
2023-01-21 15:12:00,,0826.0,5.01,0.00,22.1,20.0,00.0,31.1,23.7,08.7,0000.0,0007.58,0004.94,0004.71
2023-01-21 15:13:00,,0826.0,5.00,0.00,22.1,20.9,00.0,31.0,23.9,08.7,0000.0,0007.59,0004.96,0004.73
2023-01-21 15:14:00,,0826.0,5.00,0.00,22.3,22.2,00.0,31.0,24.1,08.7,0000.0,0007.64,0004.99,0004.75
2023-01-21 15:15:00,,0826.0,5.00,0.00,22.4,22.9,00.0,31.0,24.4,08.6,0000.0,0007.65,0005.01,0004.77
2023-01-21 15:16:00,,0826.0,4.99,0.00,22.4,22.5,00.0,31.1,24.4,08.6,0000.0,0007.56,0005.01,0004.79
2023-01-21 15:17:00,,0826.0,5.01,0.00,22.4,21.9,00.0,31.1,24.2,08.5,0000.0,0007.50,0005.02,0004.79
2023-01-21 15:18:00,,0826.0,5.00,0.00,22.4,21.3,00.0,31.1,24.1,08.5,0000.0,0007.49,0005.02,0004.79
2023-01-21 15:19:00,,0826.0,5.00,0.00,22.3,21.0,00.0,31.1,24.0,08.5,0000.0,0007.45,0005.02,0004.78
2023-01-21 15:20:00,,0826.0,4.99,0.00,22.3,20.8,00.0,31.1,24.0,08.6,0000.0,0007.59,0005.01,0004.78
2023-01-21 15:21:00,,0826.0,5.00,0.00,22.3,20.6,00.0,31.1,24.0,08.6,0000.0,0007.84,0005.05,0004.79
2023-01-21 15:22:00,,0826.1,5.01,0.00,22.3,20.4,00.0,31.1,23.9,08.6,0000.0,0007.79,0005.07,0004.80
2023-01-21 15:23:00,,0826.1,5.00,0.00,22.2,20.2,00.0,31.1,23.8,08.6,0000.0,0007.69,0005.04,0004.80
2023-01-21 15:24:00,,0826.2,5.00,0.00,22.2,20.2,00.0,31.0,23.8,08.6,0000.0,0007.70,0005.03,0004.78
2023-01-21 15:25:00,,0826.2,5.00,0.00,22.1,20.1,00.0,31.0,23.8,08.7,0000.0,0007.67,0005.00,0004.77
2023-01-21 15:26:00,,0826.1,5.01,0.00,22.1,20.2,00.0,31.0,23.7,08.7,0000.0,0007.66,0004.99,0004.77
2023-01-21 15:27:00,,0826.2,5.00,0.00,22.1,20.1,00.0,31.0,23.7,08.7,0000.0,0007.62,0004.99,0004.76
2023-01-21 15:28:00,,0826.2,5.01,0.00,22.1,20.2,00.0,31.0,23.7,08.7,0000.0,0007.52,0004.98,0004.75
2023-01-21 15:29:00,,0826.2,5.02,0.00,22.1,21.2,00.0,30.9,23.9,08.7,0000.0,0007.52,0004.96,0004.75
2023-01-21 15:30:00,,0826.1,5.00,0.00,22.2,22.4,00.0,30.9,24.2,08.6,0000.0,0007.60,0004.96,0004.75
2023-01-21 15:31:00,,0826.1,4.98,0.00,22.3,22.6,00.0,31.0,24.3,08.5,0000.0,0007.35,0004.94,0004.75
2023-01-21 15:32:00,,0826.2,4.99,0.00,22.3,22.1,00.0,31.0,24.2,08.5,0000.0,0007.08,0004.92,0004.74
2023-01-21 15:33:00,,0826.2,5.01,0.00,22.3,21.7,00.0,31.0,24.1,08.5,0000.0,0007.09,0004.92,0004.73
2023-01-21 15:34:00,,0826.2,4.99,0.00,22.3,21.4,00.0,31.0,24.1,08.5,0000.0,0007.17,0004.94,0004.74
2023-01-21 15:35:00,,0826.2,5.00,0.00,22.3,21.2,00.0,31.1,24.1,08.5,0000.0,0007.15,0004.95,0004.75
2023-01-21 15:36:00,,0826.2,4.99,0.00,22.3,21.0,00.0,31.1,24.0,08.5,0000.0,0007.14,0004.96,0004.76
2023-01-21 15:37:00,,0826.2,4.99,0.00,22.3,20.8,00.0,31.0,24.0,08.5,0000.0,0007.10,0004.95,0004.76
2023-01-21 15:38:00,,0826.2,5.01,0.00,22.3,20.6,00.0,31.0,23.9,08.5,0000.0,0007.05,0004.96,0004.78
2023-01-21 15:39:00,,0826.2,5.01,0.00,22.2,20.5,00.0,31.0,23.9,08.5,0000.0,0007.30,0004.97,0004.79
2023-01-21 15:40:00,,0826.2,5.01,0.00,22.2,20.5,00.0,31.0,23.9,08.5,0000.0,0007.55,0004.97,0004.79
2023-01-21 15:41:00,,0826.2,5.00,0.00,22.2,20.5,00.0,31.0,23.9,08.5,0000.0,0007.57,0005.01,0004.80
2023-01-21 15:42:00,,0826.3,5.00,0.00,22.2,20.5,00.0,31.0,23.9,08.5,0000.0,0007.63,0005.02,0004.80
2023-01-21 15:43:00,,0826.2,5.00,0.00,22.2,20.6,00.0,31.0,23.9,08.5,0000.0,0007.62,0005.00,0004.78
2023-01-21 15:44:00,,0826.2,5.00,0.00,22.2,20.6,00.0,31.0,23.9,08.5,0000.0,0007.70,0005.01,0004.78
2023-01-21 15:45:00,,0826.3,5.00,0.00,22.2,21.0,00.0,31.0,23.9,08.5,0000.0,0007.82,0005.00,0004.77
2023-01-21 15:46:00,,0826.2,5.01,0.00,22.3,22.2,00.0,31.0,24.2,08.5,0000.0,0007.92,0005.01,0004.76
2023-01-21 15:47:00,,0826.2,5.00,0.00,22.4,23.1,00.0,31.0,24.5,08.4,0000.0,0007.97,0005.01,0004.75
2023-01-21 15:48:00,,0826.2,4.99,0.00,22.5,22.8,00.0,31.1,24.5,08.4,0000.0,0007.94,0004.98,0004.73
2023-01-21 15:49:00,,0826.2,5.01,0.00,22.5,22.4,00.0,31.1,24.5,08.4,0000.0,0007.96,0004.97,0004.71
2023-01-21 15:50:00,,0826.2,5.02,0.00,22.5,22.0,00.0,31.1,24.4,08.4,0000.0,0007.84,0004.99,0004.70
2023-01-21 15:51:00,,0826.2,4.99,0.00,22.5,21.7,00.0,31.1,24.3,08.4,0000.0,0007.63,0004.98,0004.70
2023-01-21 15:52:00,,0826.2,4.99,0.00,22.5,21.5,00.0,31.2,24.3,08.5,0000.0,0007.55,0004.96,0004.70
2023-01-21 15:53:00,,0826.3,5.01,0.00,22.5,21.4,00.0,31.2,24.3,08.5,0000.0,0007.51,0004.96,0004.70
2023-01-21 15:54:00,,0826.3,4.99,0.00,22.5,21.3,00.0,31.2,24.3,08.5,0000.0,0007.54,0004.97,0004.71
2023-01-21 15:55:00,,0826.3,4.99,0.00,22.5,21.3,00.0,31.2,24.3,08.5,0000.0,0007.66,0004.97,0004.72
2023-01-21 15:56:00,,0826.3,5.00,0.00,22.5,21.2,00.0,31.2,24.3,08.6,0000.0,0007.58,0004.97,0004.72
2023-01-21 15:57:00,,0826.3,4.99,0.00,22.5,21.2,00.0,31.2,24.2,08.4,0000.0,0007.60,0004.98,0004.72
2023-01-21 15:58:00,,0826.3,5.00,0.00,22.5,21.2,00.0,31.2,24.2,08.4,0000.0,0007.53,0004.97,0004.73
2023-01-21 15:59:00,,0826.4,5.00,0.00,22.5,21.2,00.0,31.2,24.3,08.4,0000.0,0007.56,0004.99,0004.74
